GW3991 Weather Reports


time (UTC)temp
F
wind
direction
speed
knots
gust
knots
rain 1hr
in
rain 24hr
in
rain mn
in
humidity
%
barometer
mb
20260505011630 61 357 13.9 19.1 0.00 0.00 0.00 39 1006.9
20260505011127 62 358 12.2 20.9 0.00 0.00 0.00 40 1006.9
20260505010622 62 15 13.9 25.2 0.00 0.00 0.00 39 1006.7
20260505010114 62 0 14.8 23.5 0.00 0.00 0.00 39 1006.6
20260505005610 63 357 14.8 23.5 0.00 0.00 0.00 38 1006.6
20260505005107 64 339 13.0 20.0 0.00 0.00 0.00 39 1006.7
20260505004604 65 351 16.5 21.7 0.00 0.00 0.00 37 1006.2
20260505004101 65 12 7.0 20.0 0.00 0.00 0.00 38 1006.0
20260505003558 66 353 13.9 18.2 0.00 0.00 0.00 37 1006.2
20260505003055 66 355 12.2 20.0 0.00 0.00 0.00 36 1006.0
20260505002555 67 357 15.6 20.9 0.00 0.00 0.00 35 1005.7
20260505002054 68 350 14.8 20.0 0.00 0.00 0.00 35 1005.9
20260505001551 69 353 9.6 14.8 0.00 0.00 0.00 35 1005.6
20260505001048 69 6 13.0 19.1 0.00 0.00 0.00 33 1005.8
20260505000546 70 1 14.8 16.5 0.00 0.00 0.00 33 1005.5
20260505000043 70 354 13.9 16.5 0.00 0.00 0.00 33 1005.6
20260504235540 70 26 5.2 18.2 0.00 0.00 0.00 34 1005.3
20260504235037 69 357 6.1 12.2 0.00 0.00 0.00 35 1005.5
20260504234533 70 345 7.8 13.0 0.00 0.00 0.00 34 1005.6
20260504234031 70 13 7.0 18.2 0.00 0.00 0.00 34 1005.6
20260504233526 70 8 7.8 13.9 0.00 0.00 0.00 33 1005.6
20260504233023 71 342 14.8 19.1 0.00 0.00 0.00 32 1005.2
20260504232520 71 343 7.8 13.0 0.00 0.00 0.00 33 1005.4
20260504232018 71 359 7.0 14.8 0.00 0.00 0.00 33 1005.3
20260504231514 71 340 11.3 21.7 0.00 0.00 0.00 32 1005.3
20260504231010 72 20 7.8 13.0 0.00 0.00 0.00 34 1005.1
20260504230507 72 349 11.3 20.0 0.00 0.00 0.00 32 1004.7
20260504230006 72 5 11.3 18.2 0.00 0.00 0.00 31 1005.1
20260504225502 73 346 7.8 13.0 0.00 0.00 0.00 33 1004.9
20260504224959 73 5 8.7 20.0 0.00 0.00 0.00 31 1004.5
20260504224455 73 348 7.8 16.5 0.00 0.00 0.00 30 1004.3
20260504223953 73 350 14.8 18.2 0.00 0.00 0.00 30 1004.4
20260504223449 73 347 14.8 16.5 0.00 0.00 0.00 30 1004.2
20260504222944 73 13 10.4 20.0 0.00 0.00 0.00 31 1004.3
20260504222442 74 23 13.9 16.5 0.00 0.00 0.00 30 1004.0
20260504221940 74 353 13.0 17.4 0.00 0.00 0.00 30 1003.9
20260504221437 75 348 11.3 14.8 0.00 0.00 0.00 30 1003.7
20260504220934 74 352 8.7 18.2 0.00 0.00 0.00 31 1003.8
20260504220430 75 355 8.7 16.5 0.00 0.00 0.00 30 1003.5
20260504215927 75 349 9.6 14.8 0.00 0.00 0.00 32 1003.5
20260504215424 76 351 7.0 13.9 0.00 0.00 0.00 31 1003.5
20260504214921 76 352 6.1 15.6 0.00 0.00 0.00 30 1003.2
20260504214417 76 349 12.2 15.6 0.00 0.00 0.00 29 1003.5
20260504213914 76 359 7.8 13.9 0.00 0.00 0.00 30 1003.1
20260504213410 77 345 8.7 11.3 0.00 0.00 0.00 29 1003.2
20260504212908 76 339 10.4 15.6 0.00 0.00 0.00 31 1003.2
20260504212403 76 348 9.6 10.4 0.00 0.00 0.00 30 1003.2
20260504211901 77 356 5.2 13.9 0.00 0.00 0.00 30 1003.2
20260504211357 77 356 6.1 11.3 0.00 0.00 0.00 30 1003.1
20260504210854 77 350 11.3 16.5 0.00 0.00 0.00 30 1003.1
20260504210346 77 354 7.8 11.3 0.00 0.00 0.00 30 1003.1
20260504205843 77 349 8.7 11.3 0.00 0.00 0.00 31 1003.1
20260504205341 77 346 7.0 16.5 0.00 0.00 0.00 32 1002.9
20260504204839 77 353 7.8 13.9 0.00 0.00 0.00 31 1003.1
20260504204337 77 345 12.2 13.9 0.00 0.00 0.00 32 1003.0
20260504203836 78 343 6.1 12.2 0.00 0.00 0.00 32 1003.0
20260504203333 76 356 7.8 14.8 0.00 0.00 0.00 34 1003.1
20260504202828 77 0 7.8 13.0 0.00 0.00 0.00 35 1003.0
20260504202326 77 349 12.2 13.9 0.00 0.00 0.00 34 1002.9
20260504201822 77 348 7.0 13.9 0.00 0.00 0.00 35 1002.7
20260504201320 78 344 11.3 13.0 0.00 0.00 0.00 34 1002.9
20260504200817 78 333 9.6 14.8 0.00 0.00 0.00 34 1003.0
20260504200314 78 349 7.0 13.9 0.00 0.00 0.00 36 1003.0
20260504195810 77 340 10.4 14.8 0.00 0.00 0.00 36 1003.0
20260504195306 77 345 6.1 11.3 0.00 0.00 0.00 37 1002.9
20260504194803 77 339 9.6 14.8 0.00 0.00 0.00 35 1002.9
20260504194259 77 348 9.6 17.4 0.00 0.00 0.00 36 1003.1
20260504193755 78 5 4.3 14.8 0.00 0.00 0.00 36 1002.8
20260504193253 78 341 8.7 13.0 0.00 0.00 0.00 37 1002.7
20260504192751 78 357 13.0 13.9 0.00 0.00 0.00 34 1002.5
20260504192249 77 352 6.1 16.5 0.00 0.00 0.00 34 1002.7
20260504191747 78 336 9.6 13.9 0.00 0.00 0.00 37 1002.7
20260504191244 78 319 16.5 20.9 0.00 0.00 0.00 33 1002.7
20260504190739 78 315 12.2 17.4 0.00 0.00 0.00 33 1002.4
20260504190236 79 341 8.7 17.4 0.00 0.00 0.00 33 1002.5
20260504185732 79 320 17.4 23.5 0.00 0.00 0.00 34 1002.3
20260504185229 79 342 9.6 16.5 0.00 0.00 0.00 31 1002.6
20260504184725 79 332 16.5 18.2 0.00 0.00 0.00 32 1002.2
20260504184221 79 326 15.6 25.2 0.00 0.00 0.00 32 1002.2
20260504183717 80 351 7.8 12.2 0.00 0.00 0.00 32 1002.1
20260504183215 79 340 9.6 20.0 0.00 0.00 0.00 33 1002.1
20260504182713 78 330 13.0 18.2 0.00 0.00 0.00 33 1002.1
20260504182210 79 311 19.1 20.9 0.00 0.00 0.00 32 1002.1
20260504181707 79 308 15.6 20.0 0.00 0.00 0.00 30 1002.2
20260504181204 79 329 7.8 11.3 0.00 0.00 0.00 30 1002.0
20260504180703 78 304 12.2 16.5 0.00 0.00 0.00 30 1002.1
20260504180202 78 304 9.6 20.9 0.00 0.00 0.00 31 1002.4
20260504175658 79 322 11.3 14.8 0.00 0.00 0.00 31 1002.5
20260504175155 79 322 13.0 15.6 0.00 0.00 0.00 31 1002.5
20260504174653 78 316 19.1 20.9 0.00 0.00 0.00 30 1002.4
20260504174150 78 309 11.3 15.6 0.00 0.00 0.00 31 1002.3
20260504173647 79 345 11.3 16.5 0.00 0.00 0.00 31 1002.5
20260504173144 78 323 9.6 18.2 0.00 0.00 0.00 36 1002.5
20260504172641 78 314 16.5 22.6 0.00 0.00 0.00 35 1002.4
20260504172137 79 317 12.2 15.6 0.00 0.00 0.00 31 1002.5
20260504171634 79 294 13.9 19.1 0.00 0.00 0.00 29 1002.6
20260504171131 79 313 13.0 16.5 0.00 0.00 0.00 30 1002.4
20260504170627 78 297 9.6 13.0 0.00 0.00 0.00 31 1002.4
20260504170125 78 312 13.0 16.5 0.00 0.00 0.00 35 1002.3
20260504151004 67 257 7.0 7.0 0.00 0.00 0.00 47 1003.0
20260504150502 67 250 6.1 7.8 0.00 0.00 0.00 48 1002.9
20260504140928 62 307 6.1 7.8 0.00 0.00 0.00 58 1003.3
20260504140424 62 328 3.5 5.2 0.00 0.00 0.00 57 1003.4
20260504130349 54 311 6.1 6.1 0.00 0.00 0.00 72 1003.3
20260504120312 51 125 1.7 1.7 0.00 0.00 0.00 80 1002.8
20260504110236 49 105 1.7 1.7 0.00 0.00 0.00 83 1002.9
20260504100154 51 2 0.9 2.6 0.00 0.00 0.00 81 1002.9
20260504090117 52 39 0.0 1.7 0.00 0.00 0.00 83 1003.5
20260504081552 52 83 0.9 1.7 0.00 0.00 0.00 80 1004.2
20260504081048 52 28 1.7 2.6 0.00 0.00 0.00 82 1004.5
20260504080545 53 77 0.9 1.7 0.00 0.00 0.00 82 1004.3
20260504050357 57 118 1.7 1.7 0.00 0.00 0.00 60 1007.2
20260504045855 58 102 0.0 1.7 0.00 0.00 0.00 62 1007.0
20260504045349 59 116 0.0 1.7 0.00 0.00 0.00 60 1007.0
20260504044847 59 144 1.7 2.6 0.00 0.00 0.00 62 1007.0
20260504044344 59 120 0.9 1.7 0.00 0.00 0.00 60 1007.4
20260504043841 60 116 1.7 2.6 0.00 0.00 0.00 56 1007.3
20260504043338 60 131 0.9 2.6 0.00 0.00 0.00 62 1007.4
20260504042835 60 123 0.9 1.7 0.00 0.00 0.00 57 1007.3
20260504042331 60 122 0.9 1.7 0.00 0.00 0.00 56 1007.3
20260504041828 60 126 2.6 2.6 0.00 0.00 0.00 56 1007.5
20260504041324 61 133 1.7 3.5 0.00 0.00 0.00 61 1007.7
20260504040820 61 135 2.6 2.6 0.00 0.00 0.00 58 1007.7
20260504040318 61 137 1.7 2.6 0.00 0.00 0.00 56 1007.7
20260504035814 61 108 0.9 2.6 0.00 0.00 0.00 56 1007.9
20260504035311 60 119 0.9 1.7 0.00 0.00 0.00 61 1008.0
20260504034809 60 122 0.0 2.6 0.00 0.00 0.00 72 1007.7
20260504034306 60 43 0.0 0.9 0.00 0.00 0.00 74 1007.9
20260504033803 61 122 0.0 0.9 0.00 0.00 0.00 74 1008.1
20260504033301 61 157 0.0 1.7 0.00 0.00 0.00 76 1008.0
20260504032757 61 161 0.0 2.6 0.00 0.00 0.00 75 1008.1
20260504032254 62 175 0.9 1.7 0.00 0.00 0.00 78 1008.0
20260504031751 62 123 1.7 2.6 0.00 0.00 0.00 68 1008.1
20260504031249 62 126 1.7 1.7 0.00 0.00 0.00 68 1008.2
20260504030744 62 101 0.9 2.6 0.00 0.00 0.00 68 1008.0
20260504030242 62 100 1.7 3.5 0.00 0.00 0.00 72 1008.0
20260504025738 62 104 1.7 2.6 0.00 0.00 0.00 71 1008.2
20260504025235 62 140 1.7 2.6 0.00 0.00 0.00 66 1008.2
20260504024732 62 89 0.0 1.7 0.00 0.00 0.00 64 1008.1
20260504024228 63 120 0.0 2.6 0.00 0.00 0.00 62 1008.2
20260504023725 62 120 1.7 2.6 0.00 0.00 0.00 65 1008.0
20260504023221 63 87 1.7 1.7 0.00 0.00 0.00 62 1008.2
20260504022717 63 110 0.0 1.7 0.00 0.00 0.00 60 1008.4
20260504022214 64 87 1.7 1.7 0.00 0.00 0.00 55 1008.3
20260504021712 64 122 0.9 1.7 0.00 0.00 0.00 56 1008.4
20260504021208 64 111 1.7 1.7 0.00 0.00 0.00 59 1008.3
20260504020705 64 86 1.7 2.6 0.00 0.00 0.00 62 1008.4
20260504020201 65 91 1.7 2.6 0.00 0.00 0.00 52 1008.4
20260504015658 66 108 2.6 3.5 0.00 0.00 0.00 44 1008.5
20260504015154 66 108 1.7 2.6 0.00 0.00 0.00 47 1008.5
20260504014650 66 113 0.9 1.7 0.00 0.00 0.00 42 1008.5
20260504014147 67 121 0.9 1.7 0.00 0.00 0.00 42 1008.5
20260504013645 68 139 0.9 1.7 0.00 0.00 0.00 43 1008.5
20260504013141 69 146 0.9 1.7 0.00 0.00 0.00 41 1008.4
20260504012639 69 202 0.0 2.6 0.00 0.00 0.00 37 1008.3
20260504012131 69 198 1.7 2.6 0.00 0.00 0.00 37 1008.6